FW3788 Weather Reports


Display with metric or nautical units.
time (UTC)temp
F
wind
direction
speed
MPH
gust
MPH
rain 1hr
in
rain 24hr
in
rain mn
in
humidity
%
barometer
mb
20260507172017 71 104 0.0 6.0 0.00 0.00 0.00 47 1016.3
20260507171527 71 187 0.0 5.0 0.00 0.00 0.00 48 1016.3
20260507171019 72 319 2.0 5.0 0.00 0.00 0.00 47 1016.3
20260507170518 72 341 0.0 2.0 0.00 0.00 0.00 49 1016.4
20260507170019 71 341 0.0 2.0 0.00 0.00 0.00 47 1016.3
20260507165518 71 341 0.0 7.0 0.00 0.00 0.00 50 1016.4
20260507165018 70 341 0.0 7.0 0.00 0.00 0.00 51 1016.5
20260507164518 70 287 1.0 5.0 0.00 0.00 0.00 51 1016.5
20260507164019 70 284 0.0 5.0 0.00 0.00 0.00 55 1016.6
20260507163518 70 293 0.0 0.0 0.00 0.00 0.00 54 1016.6
20260507163018 69 14 0.0 0.0 0.00 0.00 0.00 55 1016.6
20260507162518 68 22 0.0 0.0 0.00 0.00 0.00 57 1016.7
20260507162020 67 22 0.0 0.0 0.00 0.00 0.00 58 1016.7
20260507161519 67 22 0.0 0.0 0.00 0.00 0.00 58 1016.7
20260507161148 67 29 0.0 0.0 0.00 0.00 0.00 58 1016.6
20260507080018 50 36 0.0 0.0 0.00 0.00 0.00 84 1017.6
20260507075521 50 36 0.0 0.0 0.00 0.00 0.00 84 1017.5
20260507075018 50 36 0.0 0.0 0.00 0.00 0.00 84 1017.5
20260507074518 51 36 0.0 0.0 0.00 0.00 0.00 83 1017.4
20260507074021 51 36 0.0 0.0 0.00 0.00 0.00 83 1017.4
20260507073518 51 36 0.0 0.0 0.00 0.00 0.00 83 1017.5
20260507073119 51 36 0.0 0.0 0.00 0.00 0.00 83 1017.5
20260507072518 51 36 0.0 0.0 0.00 0.00 0.00 83 1017.5
20260507072018 51 36 0.0 0.0 0.00 0.00 0.00 83 1017.5
20260507071523 51 36 0.0 0.0 0.00 0.00 0.00 83 1017.5
20260507071118 51 36 0.0 0.0 0.00 0.00 0.00 83 1017.6
20260507070518 51 36 0.0 0.0 0.00 0.00 0.00 82 1017.5
20260507070018 51 36 0.0 0.0 0.00 0.00 0.00 82 1017.6
20260507065518 51 36 0.0 0.0 0.00 0.00 0.00 81 1017.7
20260507065019 51 36 0.0 0.0 0.00 0.00 0.00 80 1017.6
20260507064531 52 36 0.0 0.0 0.00 0.00 0.00 80 1017.6
20260507064019 52 36 0.0 0.0 0.00 0.00 0.00 81 1017.7
20260507063517 52 36 0.0 0.0 0.00 0.00 0.00 81 1017.7
20260507063020 51 36 0.0 0.0 0.00 0.00 0.00 80 1017.7
20260507062525 52 36 0.0 0.0 0.00 0.00 0.00 80 1017.6
20260507062018 52 36 0.0 0.0 0.00 0.00 0.00 78 1017.7
20260507061519 52 36 0.0 0.0 0.00 0.00 0.00 79 1017.7
20260507061017 52 36 0.0 0.0 0.00 0.00 0.00 78 1017.7
20260507060518 52 36 0.0 0.0 0.00 0.00 0.00 78 1017.7
20260507060018 52 36 0.0 0.0 0.00 0.00 0.00 78 1017.7
20260507055519 52 36 0.0 0.0 0.00 0.00 0.00 78 1017.7
20260507055021 52 36 0.0 0.0 0.00 0.00 0.00 77 1017.7
20260507054518 53 36 0.0 0.0 0.00 0.00 0.00 77 1017.6
20260507054018 53 36 0.0 0.0 0.00 0.00 0.00 77 1017.6
20260507053519 53 36 0.0 0.0 0.00 0.00 0.00 76 1017.7
20260507053018 53 36 0.0 0.0 0.00 0.00 0.00 76 1017.7
20260507052518 53 36 0.0 0.0 0.00 0.00 0.00 75 1017.7
20260507052018 53 36 0.0 0.0 0.00 0.00 0.00 75 1017.7
20260507051519 54 36 0.0 0.0 0.00 0.00 0.00 74 1017.6
20260507051018 54 36 0.0 0.0 0.00 0.00 0.00 73 1017.7
20260507050518 55 36 0.0 0.0 0.00 0.00 0.00 73 1017.6
20260507050119 55 36 0.0 0.0 0.00 0.00 0.00 72 1017.6
20260507045519 55 36 0.0 0.0 0.00 0.00 0.00 73 1017.5
20260507045019 55 36 0.0 0.0 0.00 0.00 0.00 72 1017.5
20260507044518 55 36 0.0 0.0 0.00 0.00 0.00 72 1017.5
20260507044018 55 36 0.0 0.0 0.00 0.00 0.00 71 1017.5
20260507043518 56 36 0.0 0.0 0.00 0.00 0.00 70 1017.5
20260507043018 56 36 0.0 0.0 0.00 0.00 0.00 70 1017.5
20260507042519 56 36 0.0 0.0 0.00 0.00 0.00 70 1017.4
20260507042018 56 36 0.0 0.0 0.00 0.00 0.00 69 1017.4
20260507041525 57 36 0.0 0.0 0.00 0.00 0.00 68 1017.3
20260507041022 57 36 0.0 0.0 0.00 0.00 0.00 67 1017.4
20260507040519 58 36 0.0 0.0 0.00 0.00 0.00 67 1017.2
20260507040018 58 36 0.0 0.0 0.00 0.00 0.00 65 1017.2
20260507035518 59 36 0.0 0.0 0.00 0.00 0.00 65 1017.1
20260507035118 59 36 0.0 0.0 0.00 0.00 0.00 64 1017.0
20260507034519 60 35 0.0 0.0 0.00 0.00 0.00 63 1017.0
20260507034021 60 35 0.0 0.0 0.00 0.00 0.00 62 1016.9
20260507033522 61 32 0.0 0.0 0.00 0.00 0.00 60 1016.9
20260507033020 62 31 0.0 0.0 0.00 0.00 0.00 60 1016.8
20260507032619 62 31 0.0 0.0 0.00 0.00 0.00 59 1016.7
20260507032018 62 31 0.0 0.0 0.00 0.00 0.00 58 1016.7
20260507031518 63 31 0.0 0.0 0.00 0.00 0.00 58 1016.7
20260507031018 63 31 0.0 0.0 0.00 0.00 0.00 57 1016.6
20260507030519 64 31 0.0 0.0 0.00 0.00 0.00 56 1016.4
20260507030027 64 31 0.0 0.0 0.00 0.00 0.00 55 1016.5
20260507025618 65 31 0.0 0.0 0.00 0.00 0.00 54 1016.4
20260507025019 65 31 0.0 0.0 0.00 0.00 0.00 53 1016.3
20260507024524 66 31 0.0 2.0 0.00 0.00 0.00 52 1016.3
20260507024018 66 34 0.0 4.0 0.00 0.00 0.00 52 1016.3
20260507023518 66 31 0.0 4.0 0.00 0.00 0.00 51 1016.2
20260507023018 66 337 1.0 9.0 0.00 0.00 0.00 50 1016.2
20260507022518 67 43 0.0 7.0 0.00 0.00 0.00 50 1016.2
20260507022019 67 347 1.0 7.0 0.00 0.00 0.00 49 1016.1
20260507021518 67 12 1.0 7.0 0.00 0.00 0.00 49 1016.1
20260507021018 68 34 1.0 6.0 0.00 0.00 0.00 48 1016.1
20260507020520 68 44 1.0 9.0 0.00 0.00 0.00 48 1016.0
20260507020019 68 16 2.0 9.0 0.00 0.00 0.00 47 1016.1
20260507015521 68 50 4.0 8.0 0.00 0.00 0.00 46 1015.9
20260507015018 69 48 0.0 8.0 0.00 0.00 0.00 46 1016.0
20260507014519 69 342 0.0 8.0 0.00 0.00 0.00 47 1016.0
20260507014019 69 44 1.0 9.0 0.00 0.00 0.00 46 1016.1
20260507013518 69 335 1.0 10.0 0.00 0.00 0.00 45 1016.1
20260507013018 70 10 2.0 10.0 0.00 0.00 0.00 45 1016.0
20260507012518 70 20 1.0 9.0 0.00 0.00 0.00 44 1016.0
20260507012019 70 26 4.0 9.0 0.00 0.00 0.00 44 1015.9
20260507011517 70 348 2.0 8.0 0.00 0.00 0.00 43 1015.9
20260507011018 70 359 4.0 10.0 0.00 0.00 0.00 43 1015.9
20260507010023 71 40 2.0 10.0 0.00 0.00 0.00 42 1016.0
20260507005517 71 44 4.0 12.0 0.00 0.00 0.00 43 1015.9
20260507005017 72 38 4.0 12.0 0.00 0.00 0.00 41 1015.9
20260507004519 72 336 2.0 8.0 0.00 0.00 0.00 42 1015.8
20260507004018 72 29 1.0 12.0 0.00 0.00 0.00 42 1015.8
20260507003519 72 28 4.0 12.0 0.00 0.00 0.00 42 1015.7
20260507003021 73 62 0.0 8.0 0.00 0.00 0.00 41 1015.7
20260507002518 73 103 3.0 11.0 0.00 0.00 0.00 40 1015.8
20260507002023 73 348 1.0 11.0 0.00 0.00 0.00 40 1015.7
20260507001518 73 359 2.0 9.0 0.00 0.00 0.00 40 1015.8
20260507001018 73 68 0.0 11.0 0.00 0.00 0.00 41 1015.7
20260507000518 73 51 3.0 11.0 0.00 0.00 0.00 41 1015.6
20260507000018 73 48 5.0 10.0 0.00 0.00 0.00 40 1015.6
20260506235518 74 47 3.0 9.0 0.00 0.00 0.00 39 1015.6
20260506235018 73 332 1.0 11.0 0.00 0.00 0.00 40 1015.6
20260506234520 73 39 8.0 12.0 0.00 0.00 0.00 39 1015.6
20260506234119 74 52 1.0 11.0 0.00 0.00 0.00 39 1015.6
20260506233517 74 343 3.0 11.0 0.00 0.00 0.00 39 1015.6
20260506233022 74 52 5.0 11.0 0.00 0.00 0.00 39 1015.6
20260506232518 74 359 3.0 10.0 0.00 0.00 0.00 39 1015.6
20260506232018 74 43 2.0 10.0 0.00 0.00 0.00 39 1015.7
20260506231518 74 324 2.0 10.0 0.00 0.00 0.00 38 1015.7
20260506231020 74 72 1.0 8.0 0.00 0.00 0.00 38 1015.8
20260506230518 74 38 2.0 8.0 0.00 0.00 0.00 37 1015.9
20260506230025 74 359 3.0 8.0 0.00 0.00 0.00 39 1016.0
20260506225518 74 324 2.0 8.0 0.00 0.00 0.00 39 1015.9
20260506225019 73 33 1.0 8.0 0.00 0.00 0.00 39 1016.1
20260506224620 73 44 0.0 8.0 0.00 0.00 0.00 39 1016.3
20260506224018 74 176 0.0 10.0 0.00 0.00 0.00 40 1016.3
20260506223518 73 35 5.0 10.0 0.00 0.00 0.00 39 1016.3
20260506223018 74 359 2.0 10.0 0.00 0.00 0.00 39 1016.3
20260506222518 74 58 2.0 7.0 0.00 0.00 0.00 39 1016.4
20260506222023 74 316 2.0 6.0 0.00 0.00 0.00 39 1016.5
20260506221519 73 359 0.0 10.0 0.00 0.00 0.00 39 1016.6
20260506221119 73 359 1.0 10.0 0.00 0.00 0.00 40 1016.7
20260506220518 73 309 1.0 7.0 0.00 0.00 0.00 40 1016.8
20260506220026 73 27 0.0 8.0 0.00 0.00 0.00 40 1016.9
20260506215522 73 54 2.0 8.0 0.00 0.00 0.00 40 1017.0
20260506215019 73 328 0.0 6.0 0.00 0.00 0.00 40 1017.0
20260506214518 72 23 1.0 8.0 0.00 0.00 0.00 41 1017.1
20260506214018 71 40 2.0 9.0 0.00 0.00 0.00 41 1017.1
20260506213518 72 323 5.0 10.0 0.00 0.00 0.00 40 1017.1
20260506213018 72 310 2.0 10.0 0.00 0.00 0.00 41 1017.0
20260506212621 72 310 2.0 7.0 0.00 0.00 0.00 41 1017.1
20260506212118 72 296 1.0 6.0 0.00 0.00 0.00 41 1017.1
20260506211520 71 25 0.0 6.0 0.00 0.00 0.00 41 1017.3
20260506211018 72 336 1.0 6.0 0.00 0.00 0.00 41 1017.3
20260506210518 72 336 0.0 3.0 0.00 0.00 0.00 40 1017.5
20260506210024 70 359 0.0 5.0 0.00 0.00 0.00 43 1017.4
20260506205518 70 350 1.0 8.0 0.00 0.00 0.00 42 1017.5
20260506205018 71 359 2.0 9.0 0.00 0.00 0.00 40 1017.5
20260506204519 70 191 0.0 9.0 0.00 0.00 0.00 43 1017.5
20260506204022 70 316 0.0 4.0 0.00 0.00 0.00 43 1017.6
20260506203520 69 297 1.0 7.0 0.00 0.00 0.00 43 1017.7
20260506203019 69 289 0.0 8.0 0.00 0.00 0.00 43 1017.8
20260506202627 69 330 0.0 8.0 0.00 0.00 0.00 44 1017.8
20260506202018 69 321 1.0 9.0 0.00 0.00 0.00 45 1017.9
20260506201528 70 321 1.0 9.0 0.00 0.00 0.00 43 1017.9
20260506201019 69 33 1.0 7.0 0.00 0.00 0.00 45 1018.0
20260506200518 68 195 0.0 7.0 0.00 0.00 0.00 46 1017.9
20260506200018 67 314 0.0 7.0 0.00 0.00 0.00 47 1018.2
20260506195519 67 295 1.0 7.0 0.00 0.00 0.00 48 1018.1
20260506195018 67 308 0.0 10.0 0.00 0.00 0.00 46 1018.2
20260506194518 67 12 1.0 10.0 0.00 0.00 0.00 48 1018.1
20260506194022 67 305 2.0 9.0 0.00 0.00 0.00 47 1018.2
20260506193518 67 306 3.0 7.0 0.00 0.00 0.00 46 1018.2
20260506193024 67 359 2.0 5.0 0.00 0.00 0.00 46 1018.3
20260506192518 67 314 0.0 4.0 0.00 0.00 0.00 47 1018.4
20260506192021 66 315 0.0 6.0 0.00 0.00 0.00 48 1018.6
20260506191519 66 290 0.0 10.0 0.00 0.00 0.00 49 1018.7
20260506191018 65 339 3.0 12.0 0.00 0.00 0.00 51 1018.7
20260506190519 66 23 2.0 12.0 0.00 0.00 0.00 50 1018.8
20260506190026 65 318 1.0 10.0 0.00 0.00 0.00 52 1018.8
20260506185519 65 289 1.0 12.0 0.00 0.00 0.00 50 1018.8
20260506185018 66 349 4.0 12.0 0.00 0.00 0.00 49 1018.8
20260506184521 65 293 0.0 7.0 0.00 0.00 0.00 51 1018.9
20260506184018 65 310 1.0 8.0 0.00 0.00 0.00 53 1018.9
20260506183520 64 345 2.0 8.0 0.00 0.00 0.00 53 1018.9
20260506183018 64 318 1.0 8.0 0.00 0.00 0.00 53 1018.9
20260506182518 64 346 5.0 9.0 0.00 0.00 0.00 53 1018.9
20260506182020 64 38 1.0 8.0 0.00 0.00 0.00 54 1018.9
20260506181519 63 312 1.0 10.0 0.00 0.00 0.00 57 1018.9
20260506181018 63 347 3.0 10.0 0.00 0.00 0.00 55 1018.9
20260506180518 63 303 1.0 7.0 0.00 0.00 0.00 55 1018.8
20260506180024 63 47 0.0 8.0 0.00 0.00 0.00 55 1018.9
20260506175518 63 10 1.0 10.0 0.00 0.00 0.00 56 1018.8
20260506175018 62 15 1.0 10.0 0.00 0.00 0.00 58 1018.9
20260506174619 62 343 2.0 10.0 0.00 0.00 0.00 57 1018.8
20260506174019 62 359 4.0 7.0 0.00 0.00 0.00 58 1018.9
20260506173519 63 45 2.0 6.0 0.00 0.00 0.00 57 1018.9
20260506173018 62 350 0.0 6.0 0.00 0.00 0.00 58 1019.0
20260506172518 62 12 0.0 7.0 0.00 0.00 0.00 58 1019.1